Livingston, MT

6:16 PM MST on December 13, 2017 (GMT -0700)
Mission

Weather History for KLVM - July, 2013

Change the Weather History Date:

Saturday, July 27, 2013

  Actual Average Record
Temperature  
Mean Temperature 68 °F 68 °F  
Max Temperature 87 °F 87 °F 99 °F (2006)
Min Temperature 49 °F 50 °F 40 °F (1969)
Degree Days  
Heating Degree Days 0 1  
Month to date heating degree days 46  
Since 1 June heating degree days 253  
Since 1 July heating degree days 46  
Cooling Degree Days 3 4  
Month to date cooling degree days 176 90  
Year to date cooling degree days 226 110  
Since 1 June cooling degree days 218 109  
Growing Degree Days 18 (Base 50)    
Moisture  
Dew Point 44 °F    
Average Humidity 48    
Maximum Humidity 80    
Minimum Humidity 16    
Precipitation  
Precipitation T in 0.03 in 0.69 in (2009)
Month to date precipitation 1.29 1.31  
Year to date precipitation 7.11 9.96  
Sea Level Pressure  
Sea Level Pressure 29.90 in    
Wind  
Wind Speed 12 mph (WSW)    
Max Wind Speed 31 mph    
Max Gust Speed 38 mph    
Visibility 10 miles    
Events      
T = Trace of Precipitation, MM = Missing Value Source: NWS Daily Summary

Daily Weather History Graph

Daily Weather History Graph

Search for Another Location

Airport or City:

Trip Planner

Search our weather history database for the weather conditions in past years. The results will help you decide how hot, cold, wet, or windy it might be!

Date:

Astronomy

Jul. 27, 2013 Rise Set
Actual Time 5:59 AM MDT 8:56 PM MDT
Civil Twilight 5:24 AM MDT 9:31 PM MDT
Nautical Twilight 4:39 AM MDT 10:15 PM MDT
Astronomical Twilight 3:46 AM MDT 11:08 PM MDT
Moon 11:22 PM MDT (7/27) 12:05 PM MDT (7/27)
Length of Visible Light 16h 06m
Length of Day
14h 56m
Waning Gibbous, 70% of the Moon is Illuminated
Jul 27
Waning Gibbous
Jul 29
Last Quarter
Aug 6
New
Aug 14
First Quarter
Aug 20
Full

Hourly Weather History & Observations

Time (MDT) Temp. Dew Point Humidity Pressure Visibility Wind Dir Wind Speed Gust Speed Precip Events Conditions
12:53 AM 69.1 °F 48.0 °F 47% 29.99 in 10.0 mi East 9.2 mph - N/A   Clear
1:53 AM 66.0 °F 46.9 °F 50% 29.98 in 10.0 mi SE 6.9 mph - N/A   Clear
2:53 AM 64.9 °F 46.9 °F 52% 29.97 in 10.0 mi ESE 6.9 mph - N/A   Clear
3:53 AM 59.0 °F 46.9 °F 64% 29.97 in 10.0 mi SW 3.5 mph - N/A   Clear
4:53 AM 54.0 °F 46.0 °F 75% 29.97 in 10.0 mi Calm Calm - N/A   Clear
5:53 AM 50.0 °F 44.1 °F 80% 29.98 in 10.0 mi SSW 4.6 mph - N/A   Clear
6:53 AM 54.0 °F 46.0 °F 75% 29.98 in 10.0 mi WNW 4.6 mph - N/A   Clear
7:53 AM 60.1 °F 46.9 °F 62% 29.97 in 10.0 mi WNW 3.5 mph - N/A   Clear
8:53 AM 66.0 °F 48.0 °F 52% 29.94 in 10.0 mi West 3.5 mph - N/A   Clear
9:53 AM 73.9 °F 48.0 °F 40% 29.91 in 10.0 mi WNW 11.5 mph - N/A   Clear
10:53 AM 79.0 °F 44.1 °F 29% 29.88 in 10.0 mi WNW 9.2 mph - N/A   Clear
11:53 AM 86.0 °F 42.1 °F 21% 29.85 in 10.0 mi West 10.4 mph - N/A   Clear
12:53 PM 86.0 °F 36.0 °F 17% 29.84 in 10.0 mi WSW 16.1 mph 21.9 mph N/A   Scattered Clouds
1:06 PM 84.2 °F 37.4 °F 19% 30.01 in 10.0 mi WSW 20.7 mph 28.8 mph N/A   Partly Cloudy
1:53 PM 81.0 °F 39.9 °F 23% 29.87 in 10.0 mi West 23.0 mph 32.2 mph N/A   Mostly Cloudy
2:53 PM 80.1 °F 41.0 °F 25% 29.87 in 10.0 mi West 16.1 mph - N/A   Overcast
3:53 PM 75.9 °F 44.1 °F 32% 29.90 in 10.0 mi West 12.7 mph - N/A   Overcast
4:53 PM 79.0 °F 44.1 °F 29% 29.89 in 10.0 mi SSW 8.1 mph - N/A   Overcast
5:53 PM 79.0 °F 43.0 °F 28% 29.88 in 10.0 mi Calm Calm - 0.00 in   Clear
6:53 PM 78.1 °F 44.1 °F 30% 29.86 in 10.0 mi SSW 24.2 mph 33.4 mph N/A   Clear
7:53 PM 75.9 °F 45.0 °F 33% 29.82 in 10.0 mi SSW 24.2 mph 32.2 mph N/A   Clear
8:53 PM 73.0 °F 43.0 °F 34% 29.81 in 10.0 mi SSW 19.6 mph 27.6 mph N/A   Clear
9:53 PM 71.1 °F 43.0 °F 36% 29.81 in 10.0 mi SSW 13.8 mph 20.7 mph N/A   Clear
10:53 PM 71.1 °F 46.0 °F 41% 29.81 in 10.0 mi SW 21.9 mph 29.9 mph N/A   Clear
11:53 PM 69.1 °F 46.0 °F 44% 29.79 in 10.0 mi SW 21.9 mph 26.5 mph N/A   Clear